User: anonymous   Login
Location: Newark
(30.1000°N, 109.4667°E)
Time: 22:32:27
(UTC+00:00)
Language:

Explorer 7 - Orbit

View from above orbital plane
View from above orbital plane
View from above satellite
View from above satellite

Ground track
Ground track

The orbit data is extracted from the following two-line orbital elements,

1    22U 59009A   20048.72558807  .00000002  00000-0  23472-4 0  9997
2    22  50.2844 308.4865 0139691 157.4898 203.2258 14.95039435207266
Epoch (UTC): 17 February 2020 17:24:50
Eccentricity: 0.0139691
inclination: 50.2844°
perigee height: 485 km
apogee height: 679 km
right ascension of ascending node: 308.4865°
argument of perigee: 157.4898°
revolutions per day: 14.95039435
mean anomaly at epoch: 203.2258°
orbit number at epoch: 20726

The dashed part of the orbit path shows where the satellite is in the earth's shadow,  

DLR